Weather History for Sanford, ME

Change the Weather History Date:

Saturday, September 22, 2012

  Actual Average Record
Temperature  
Mean Temperature 61 °F -  
Max Temperature 69 °F 67 °F 82 °F (2002)
Min Temperature 53 °F 45 °F 30 °F (1997)
Degree Days  
Heating Degree Days 4    
Growing Degree Days 11 (Base 50)    
Moisture  
Dew Point 54 °F    
Average Humidity 87    
Maximum Humidity 94    
Minimum Humidity 64    
Precipitation  
Precipitation 0.00 in - - ()
Sea Level Pressure  
Sea Level Pressure 29.92 in    
Wind  
Wind Speed 5 mph (NNW)    
Max Wind Speed 8 mph    
Max Gust Speed -    
Visibility 8 miles    
Events      
Averages and records for this station are not official NWS values.
T = Trace of Precipitation, MM = Missing Value Source: NWS Daily Summary

Daily Weather History Graph

Daily Weather History Graph

Search for Another Location

Airport:

Trip Planner

Search our weather history database for the weather conditions in past years. The results will help you decide how hot, cold, wet, or windy it might be!

Date:

Astronomy

Sep. 22, 2012 Rise Set
Actual Time 6:30 AM EDT 6:39 PM EDT
Civil Twilight 6:02 AM EDT 7:07 PM EDT
Nautical Twilight 5:28 AM EDT 7:41 PM EDT
Astronomical Twilight 4:54 AM EDT 8:15 PM EDT
Moon 1:56 PM EDT (9/22) 11:30 PM EDT (9/22)
Length of Visible Light 13h 05m
Length of Day
12h 08m
Waxing Crescent, 48% of the Moon is Illuminated
Sep 22
Waxing Crescent
Sep 22
First Quarter
Sep 29
Full
Oct 8
Last Quarter
Oct 15
New

Hourly Weather History & Observations

Time (EDT) Temp. Dew Point Humidity Pressure Visibility Wind Dir Wind Speed Gust Speed Precip Events Conditions
12:15 AM 53.6 °F 50.0 °F 88% 30.06 in 10.0 mi North 6.9 mph - N/A   Overcast
12:35 AM 53.6 °F 50.0 °F 88% 30.06 in 10.0 mi North 5.8 mph - N/A   Overcast
12:55 AM 53.6 °F 50.0 °F 88% 30.06 in 5.0 mi North 5.8 mph - N/A   Overcast
1:15 AM 53.6 °F 50.0 °F 88% 30.05 in 6.0 mi North 5.8 mph - N/A   Overcast
1:35 AM 53.6 °F 51.8 °F 94% 30.04 in 9.0 mi NE 5.8 mph - N/A   Overcast
1:55 AM 53.6 °F 51.8 °F 94% 30.03 in 10.0 mi NNE 5.8 mph - N/A   Overcast
2:15 AM 53.6 °F 51.8 °F 94% 30.02 in 10.0 mi NNE 6.9 mph - N/A   Overcast
2:35 AM 53.6 °F 51.8 °F 94% 30.01 in 10.0 mi NNE 6.9 mph - N/A   Overcast
2:55 AM 53.6 °F 51.8 °F 94% 30.00 in 10.0 mi North 6.9 mph - N/A   Overcast
3:15 AM 53.6 °F 51.8 °F 94% 30.01 in 10.0 mi NNW 5.8 mph - N/A   Overcast
3:35 AM 53.6 °F 51.8 °F 94% 30.01 in 10.0 mi North 5.8 mph - N/A   Overcast
3:55 AM 53.6 °F 51.8 °F 94% 30.01 in 10.0 mi North 6.9 mph - N/A   Overcast
4:15 AM 53.6 °F 51.8 °F 94% 30.00 in 10.0 mi North 6.9 mph - N/A   Overcast
4:35 AM 53.6 °F 51.8 °F 94% 30.00 in 10.0 mi North 5.8 mph - N/A   Overcast
4:55 AM 53.6 °F 51.8 °F 94% 29.98 in 10.0 mi North 6.9 mph - N/A   Overcast
5:15 AM 53.6 °F 51.8 °F 94% 29.98 in 4.0 mi North 6.9 mph - N/A   Overcast
5:35 AM 53.6 °F 51.8 °F 94% 29.98 in 5.0 mi North 6.9 mph - N/A   Overcast
5:55 AM 53.6 °F 51.8 °F 94% 29.97 in 10.0 mi North 6.9 mph - N/A   Overcast
6:15 AM 53.6 °F 51.8 °F 94% 29.97 in 9.0 mi NNW 5.8 mph - N/A   Overcast
6:35 AM 53.6 °F 51.8 °F 94% 29.98 in 8.0 mi NNW 3.5 mph - N/A   Overcast
6:55 AM 53.6 °F 51.8 °F 94% 29.98 in 3.0 mi NW 4.6 mph - N/A   Overcast
7:15 AM 53.6 °F 51.8 °F 94% 29.98 in 2.5 mi North 4.6 mph - N/A   Overcast
7:35 AM 53.6 °F 51.8 °F 94% 29.97 in 2.0 mi North 4.6 mph - N/A   Overcast
7:55 AM 53.6 °F 51.8 °F 94% 29.97 in 2.0 mi North 8.1 mph - N/A   Overcast
8:15 AM 55.4 °F 53.6 °F 94% 29.96 in 3.0 mi North 5.8 mph - N/A   Overcast
8:35 AM 55.4 °F 53.6 °F 94% 29.97 in 10.0 mi North 5.8 mph - N/A   Overcast
8:55 AM 55.4 °F 53.6 °F 94% 29.97 in 10.0 mi North 5.8 mph - N/A   Overcast
9:15 AM 55.4 °F 53.6 °F 94% 29.96 in 4.0 mi NNW 4.6 mph - N/A   Overcast
9:35 AM 55.4 °F 53.6 °F 94% 29.96 in 1.0 mi NNW 5.8 mph - N/A   Overcast
9:55 AM 57.2 °F 55.4 °F 94% 29.96 in 1.2 mi WNW 6.9 mph - N/A   Overcast
10:15 AM 57.2 °F 55.4 °F 94% 29.95 in 1.2 mi NW 5.8 mph - N/A   Overcast
10:55 AM 59.0 °F 55.4 °F 88% 29.94 in 5.0 mi Calm Calm - N/A   Overcast
11:15 AM 60.8 °F 57.2 °F 88% 29.93 in 9.0 mi Calm Calm - N/A   Overcast
11:35 AM 60.8 °F 55.4 °F 82% 29.92 in 10.0 mi Calm Calm - N/A   Overcast
11:55 AM 62.6 °F 57.2 °F 82% 29.91 in 10.0 mi Calm Calm - N/A   Overcast
12:15 PM 62.6 °F 57.2 °F 82% 29.92 in 10.0 mi Calm Calm - N/A   Overcast
12:35 PM 64.4 °F 57.2 °F 77% 29.92 in 10.0 mi Calm Calm - N/A   Overcast
12:55 PM 64.4 °F 57.2 °F 77% 29.90 in 10.0 mi SSW 5.8 mph - N/A   Overcast
1:15 PM 64.4 °F 59.0 °F 83% 29.90 in 10.0 mi SW 4.6 mph - N/A   Overcast
1:35 PM 64.4 °F 57.2 °F 77% 29.89 in 10.0 mi SSW 5.8 mph - N/A   Overcast
2:15 PM 66.2 °F 57.2 °F 73% 29.88 in 10.0 mi South 5.8 mph - N/A   Overcast
2:35 PM 66.2 °F 57.2 °F 73% 29.88 in 10.0 mi SSW 4.6 mph - N/A   Mostly Cloudy
2:55 PM 68.0 °F 57.2 °F 68% 29.86 in 10.0 mi South 6.9 mph - N/A   Scattered Clouds
3:15 PM 69.8 °F 57.2 °F 64% 29.86 in 10.0 mi SE 4.6 mph - N/A   Partly Cloudy
3:35 PM 69.8 °F 57.2 °F 64% 29.85 in 10.0 mi SSE 6.9 mph - N/A   Clear
4:15 PM 69.8 °F 57.2 °F 64% 29.85 in 10.0 mi South 6.9 mph - N/A   Clear
4:35 PM 69.8 °F 59.0 °F 68% 29.85 in 10.0 mi South 4.6 mph - N/A   Clear
4:55 PM 69.8 °F 57.2 °F 64% 29.85 in 10.0 mi South 5.8 mph - N/A   Clear
5:15 PM 68.0 °F 57.2 °F 68% 29.85 in 10.0 mi South 3.5 mph - N/A   Clear
5:35 PM 66.2 °F 59.0 °F 78% 29.85 in 10.0 mi South 5.8 mph - N/A   Clear
5:55 PM 66.2 °F 57.2 °F 73% 29.85 in 10.0 mi South 5.8 mph - N/A   Clear
6:15 PM 64.4 °F 57.2 °F 77% 29.85 in 10.0 mi South 4.6 mph - N/A   Clear
6:35 PM 62.6 °F 57.2 °F 82% 29.86 in 10.0 mi SSW 4.6 mph - N/A   Clear
6:55 PM 62.6 °F 57.2 °F 82% 29.85 in 10.0 mi South 4.6 mph - N/A   Clear
7:15 PM 60.8 °F 57.2 °F 88% 29.86 in 10.0 mi Calm Calm - N/A   Clear
7:35 PM 60.8 °F 57.2 °F 88% 29.85 in 10.0 mi Calm Calm - N/A   Clear
7:55 PM 59.0 °F 55.4 °F 88% 29.85 in 10.0 mi Calm Calm - N/A   Clear
8:15 PM 57.2 °F 55.4 °F 94% 29.84 in 10.0 mi Calm Calm - N/A   Clear
8:35 PM 57.2 °F 55.4 °F 94% 29.84 in 10.0 mi South 3.5 mph - N/A   Clear
8:55 PM 57.2 °F 55.4 °F 94% 29.84 in 10.0 mi Calm Calm - N/A   Clear
9:15 PM 57.2 °F 55.4 °F 94% 29.84 in 4.0 mi Calm Calm - N/A   Clear
9:35 PM 55.4 °F 53.6 °F 94% 29.84 in 2.5 mi Calm Calm - N/A   Clear
9:55 PM 55.4 °F 53.6 °F 94% 29.85 in 5.0 mi Calm Calm - N/A   Clear
10:15 PM 53.6 °F 51.8 °F 94% 29.84 in 4.0 mi Calm Calm - N/A   Scattered Clouds
10:35 PM 53.6 °F 51.8 °F 94% 29.83 in 3.0 mi SE 3.5 mph - N/A   Scattered Clouds
11:15 PM 53.6 °F 51.8 °F 94% 29.84 in 7.0 mi Calm Calm - N/A   Overcast
11:35 PM 55.4 °F 53.6 °F 94% 29.84 in 7.0 mi Calm Calm - N/A   Overcast
11:55 PM 57.2 °F 55.4 °F 94% 29.83 in 7.0 mi Calm Calm - N/A   Overcast